FW8040 Weather Reports


time (UTC)temp
C
wind
direction
speed
KPH
gust
KPH
rain 1hr
cm
rain 24hr
cm
rain mn
cm
humidity
%
barometer
mb
20260508025542 12 0 0.0 0.0 0.00 0.91 0.91 95 1011.9
20260508025042 12 0 0.0 0.0 0.00 0.91 0.91 95 1011.8
20260508024558 12 0 0.0 0.0 0.00 0.91 0.91 95 1011.9
20260508024044 12 0 0.0 0.0 0.00 0.91 0.91 95 1011.7
20260508023544 12 0 0.0 0.0 0.00 0.91 0.91 95 1011.5
20260508023046 12 0 0.0 0.0 0.00 0.91 0.91 95 1011.6
20260508022543 12 0 0.0 0.0 0.00 0.91 0.91 95 1011.6
20260508022044 12 0 0.0 0.0 0.00 0.91 0.91 95 1011.7
20260508021549 12 0 0.0 0.0 0.00 0.91 0.91 95 1011.5
20260508021043 12 0 0.0 0.0 0.00 0.91 0.91 95 1011.5
20260508020544 12 0 0.0 0.0 0.00 0.91 0.91 95 1011.6
20260508020050 12 0 0.0 0.0 0.00 0.91 0.91 95 1011.7
20260508015544 12 0 0.0 0.0 0.00 0.91 0.91 95 1011.5
20260508015044 12 0 0.0 0.0 0.00 0.91 0.91 95 1011.4
20260508014550 12 0 0.0 0.0 0.00 0.91 0.91 94 1011.4
20260508014045 12 0 0.0 0.0 0.00 0.91 0.91 94 1011.0
20260508013544 12 0 0.0 0.0 0.00 0.91 0.91 94 1010.8
20260508013052 12 0 0.0 0.0 0.00 0.91 0.91 94 1010.8
20260508012544 12 0 0.0 0.0 0.00 0.91 0.91 94 1010.7
20260508012043 12 0 0.0 0.0 0.00 0.91 0.91 94 1010.8
20260508011559 12 0 0.0 0.0 0.00 0.91 0.91 94 1010.8
20260508011045 12 0 0.0 0.0 0.00 0.91 0.91 94 1010.9
20260508010544 12 0 0.0 0.0 0.00 0.91 0.91 94 1011.0
20260508010101 12 0 0.0 0.0 0.00 0.91 0.91 94 1010.8
20260508005543 12 0 0.0 0.0 0.00 0.91 0.91 94 1010.6
20260508005043 12 0 0.0 0.0 0.00 0.91 0.91 94 1010.5
20260508004602 12 0 0.0 0.0 0.00 0.91 0.91 94 1010.4
20260508004044 12 0 0.0 0.0 0.00 0.91 0.91 94 1010.2
20260508003543 12 0 0.0 0.0 0.00 0.91 0.91 94 1010.2
20260508003058 12 0 0.0 0.0 0.00 0.91 0.91 94 1010.0
20260508002544 12 0 0.0 0.0 0.00 0.91 0.91 94 1010.1
20260508002043 12 0 0.0 0.0 0.00 0.91 0.91 94 1010.3
20260508001551 12 0 0.0 0.0 0.00 0.91 0.91 94 1010.3
20260508001043 12 0 0.0 0.0 0.00 0.91 0.91 94 1010.3
20260508000548 12 0 0.0 0.0 0.00 0.91 0.91 94 1010.2
20260508000054 12 0 0.0 0.0 0.00 0.91 0.91 94 1010.1
20260507235543 12 0 0.0 0.0 0.00 0.91 0.91 94 1010.0
20260507235043 12 0 0.0 0.0 0.00 0.91 0.91 94 1009.9
20260507234549 12 0 0.0 0.0 0.00 0.91 0.91 94 1009.7
20260507234043 12 0 0.0 0.0 0.00 0.91 0.91 94 1009.9
20260507233543 12 0 0.0 0.0 0.00 0.91 0.91 94 1009.5
20260507233052 12 0 0.0 0.0 0.00 0.91 0.91 94 1009.4
20260507232543 12 0 0.0 1.6 0.00 0.91 0.91 93 1009.2
20260507232045 12 0 0.0 1.6 0.00 0.91 0.91 93 1009.0
20260507231559 12 0 0.0 1.6 0.00 0.91 0.91 93 1009.2
20260507231043 12 0 0.0 3.2 0.00 0.91 0.91 94 1009.2
20260507230544 12 0 0.0 3.2 0.00 0.91 0.91 93 1009.3
20260507230052 12 327 0.0 1.6 0.00 0.91 0.91 94 1009.2
20260507225544 12 0 0.0 3.2 0.00 0.91 0.91 94 1009.2
20260507225043 12 0 0.0 3.2 0.00 0.91 0.91 94 1009.1
20260507224602 12 0 0.0 0.0 0.00 0.91 0.91 94 1009.2
20260507224044 12 0 0.0 1.6 0.00 0.91 0.91 94 1009.1
20260507223544 12 0 0.0 1.6 0.00 0.91 0.91 95 1009.1
20260507223050 12 0 0.0 1.6 0.00 0.91 0.91 95 1008.9
20260507222544 12 0 0.0 4.8 0.00 0.91 0.91 95 1008.9
20260507222042 12 0 0.0 4.8 0.00 0.91 0.91 94 1009.1
20260507221549 12 328 0.0 3.2 0.00 0.91 0.91 95 1009.2
20260507221044 12 319 0.0 1.6 0.00 0.91 0.91 95 1009.4
20260507220543 12 0 0.0 1.6 0.00 0.91 0.91 95 1009.3
20260507220050 12 331 0.0 1.6 0.00 0.91 0.91 95 1009.4
20260507215548 12 0 0.0 1.6 0.00 0.91 0.91 95 1009.3
20260507215042 12 0 0.0 1.6 0.00 0.91 0.91 95 1009.1
20260507214558 12 0 0.0 3.2 0.00 0.91 0.91 95 1009.0
20260507214043 12 0 0.0 3.2 0.00 0.91 0.91 95 1009.0
20260507213543 12 0 0.0 3.2 0.00 0.91 0.91 95 1009.2
20260507213104 12 86 0.0 1.6 0.00 0.91 0.91 95 1009.2
20260507212546 12 0 0.0 4.8 0.00 0.91 0.91 95 1008.9
20260507212043 12 0 0.0 4.8 0.00 0.91 0.91 95 1008.8
20260507211552 12 332 0.0 1.6 0.00 0.91 0.91 95 1009.0
20260507211042 12 337 0.0 3.2 0.00 0.91 0.91 95 1009.0
20260507210543 12 0 0.0 4.8 0.00 0.91 0.91 95 1008.8
20260507210055 12 332 0.0 4.8 0.00 0.91 0.91 95 1008.8
20260507205543 12 0 0.0 3.2 0.00 0.91 0.91 96 1008.6
20260507205042 12 0 0.0 3.2 0.00 0.91 0.91 95 1008.6
20260507204557 12 0 0.0 3.2 0.00 0.91 0.91 95 1008.5
20260507204041 12 345 0.0 3.2 0.00 0.91 0.91 95 1008.7
20260507203547 12 359 0.0 4.8 0.00 0.91 0.91 95 1008.8
20260507203050 12 0 0.0 4.8 0.00 0.91 0.91 95 1008.6
20260507202544 12 330 0.0 4.8 0.00 0.91 0.91 95 1008.5
20260507202043 12 104 0.0 11.3 0.03 0.91 0.91 95 1008.5
20260507201547 12 0 1.6 11.3 0.03 0.91 0.91 95 1008.5
20260507201041 12 54 0.0 4.8 0.03 0.91 0.91 95 1008.4
20260507200544 12 323 0.0 4.8 0.03 0.91 0.91 96 1008.4
20260507200053 12 0 0.0 3.2 0.03 0.91 0.91 96 1008.6
20260507195545 12 81 0.0 9.7 0.03 1.07 0.91 96 1008.5
20260507195047 12 358 0.0 9.7 0.03 1.07 0.91 96 1008.2
20260507194548 12 335 0.0 6.4 0.03 1.07 0.91 96 1008.1
20260507194043 12 335 0.0 6.4 0.03 1.07 0.91 96 1008.1
20260507193543 12 0 0.0 6.4 0.03 1.07 0.91 96 1008.2
20260507193101 13 0 0.0 3.2 0.03 1.07 0.91 96 1008.6
20260507192540 13 0 0.0 3.2 0.03 1.07 0.91 96 1008.6
20260507192044 13 0 0.0 1.6 0.00 1.04 0.89 96 1008.6
20260507191550 13 0 0.0 1.6 0.00 1.04 0.89 95 1008.7
20260507191043 13 328 0.0 1.6 0.00 1.04 0.89 96 1008.7
20260507190543 13 0 0.0 1.6 0.00 1.04 0.89 96 1008.8
20260507185544 13 25 0.0 1.6 0.00 1.09 0.89 96 1008.1
20260507185044 13 0 0.0 1.6 0.00 1.09 0.89 96 1008.1
20260507184548 13 0 0.0 3.2 0.00 1.09 0.89 96 1007.8
20260507184044 13 0 0.0 3.2 0.00 1.09 0.89 95 1008.3
20260507183542 13 345 0.0 4.8 0.00 1.09 0.89 95 1008.5
20260507183051 13 0 0.0 4.8 0.00 1.09 0.89 95 1008.2
20260507182546 13 34 0.0 1.6 0.00 1.09 0.89 95 1007.7
20260507182044 13 0 0.0 6.4 0.00 1.09 0.89 95 1007.7
20260507181556 14 0 0.0 6.4 0.00 1.09 0.89 95 1007.7
20260507181044 14 336 0.0 6.4 0.00 1.09 0.89 95 1007.6
20260507180544 14 0 0.0 6.4 0.00 1.09 0.89 95 1007.5
20260507180054 14 328 0.0 6.4 0.00 1.09 0.89 95 1007.7
20260507175543 14 339 0.0 3.2 0.03 1.09 0.89 95 1007.9
20260507175044 14 348 0.0 3.2 0.03 1.09 0.89 94 1008.2
20260507174552 15 349 0.0 3.2 0.03 1.09 0.89 94 1008.7
20260507174046 15 0 0.0 1.6 0.03 1.09 0.89 94 1008.7
20260507173543 15 198 0.0 6.4 0.03 1.09 0.89 94 1008.5
20260507173055 16 0 0.0 6.4 0.03 1.09 0.89 94 1007.7
20260507172548 16 336 0.0 4.8 0.03 1.09 0.89 93 1007.7
20260507172042 17 0 0.0 6.4 0.03 1.09 0.89 93 1007.5
20260507171554 18 340 0.0 6.4 0.03 1.09 0.89 94 1007.2
20260507171043 18 340 0.0 3.2 0.03 1.09 0.89 95 1006.9
20260507170544 19 0 0.0 1.6 0.05 1.09 0.89 97 1006.7
20260507170052 19 0 0.0 1.6 0.05 1.09 0.89 97 1006.8
20260507165548 19 0 0.0 1.6 0.03 1.07 0.86 97 1006.7
20260507165045 19 0 0.0 0.0 0.03 1.07 0.86 96 1007.0
20260507164549 19 0 0.0 0.0 0.03 1.07 0.86 96 1007.2
20260507164041 19 0 0.0 1.6 0.03 1.07 0.86 96 1007.5
20260507163545 19 0 0.0 1.6 0.03 1.07 0.86 96 1007.9
20260507163049 20 0 0.0 1.6 0.03 1.07 0.86 97 1007.9
20260507162543 20 0 0.0 0.0 0.03 1.07 0.86 98 1008.0
20260507162046 20 0 0.0 0.0 0.03 1.07 0.86 98 1008.0
20260507161552 20 0 0.0 0.0 0.03 1.07 0.86 97 1008.0
20260507161043 20 0 0.0 0.0 0.03 1.07 0.86 97 1008.1
20260507160547 20 0 0.0 0.0 0.03 1.04 0.84 97 1008.3
20260507160054 20 0 0.0 0.0 0.05 1.04 0.84 97 1008.4
20260507155543 20 0 0.0 0.0 0.05 1.04 0.84 97 1008.4
20260507155047 19 0 0.0 0.0 0.08 1.04 0.84 97 1008.5
20260507154551 19 0 0.0 0.0 0.08 1.04 0.84 97 1008.3
20260507154044 19 0 0.0 0.0 0.08 1.04 0.84 97 1008.0
20260507153547 19 0 0.0 0.0 0.10 1.04 0.84 97 1007.6
20260507153052 19 0 0.0 0.0 0.13 1.04 0.84 97 1007.8
20260507152543 19 0 0.0 0.0 0.15 1.04 0.84 97 1008.1
20260507152043 19 0 0.0 0.0 0.20 1.04 0.84 97 1008.1
20260507151549 19 0 0.0 0.0 0.23 1.04 0.84 97 1008.1
20260507151045 19 0 0.0 0.0 0.23 1.04 0.84 97 1008.2
20260507150543 19 0 0.0 0.0 0.23 1.02 0.81 97 1008.2
20260507150049 19 0 0.0 0.0 0.20 0.99 0.79 97 1008.2
20260507145544 19 0 0.0 0.0 0.20 0.99 0.79 97 1008.4
20260507145043 19 0 0.0 0.0 0.20 0.97 0.76 97 1008.4
20260507144550 19 0 0.0 0.0 0.20 0.97 0.76 97 1008.5
20260507144044 19 0 0.0 0.0 0.20 0.94 0.74 97 1008.5
20260507143543 19 0 0.0 0.0 0.20 0.94 0.74 97 1008.4
20260507143051 19 0 0.0 0.0 0.18 0.91 0.71 97 1008.5
20260507142543 19 0 0.0 0.0 0.15 0.89 0.69 97 1008.5
20260507142043 19 0 0.0 0.0 0.10 0.84 0.64 97 1008.5
20260507141559 19 0 0.0 0.0 0.08 0.81 0.61 97 1008.3
20260507141043 19 0 0.0 0.0 0.08 0.81 0.61 97 1008.2
20260507140543 19 0 0.0 1.6 0.05 0.79 0.58 97 1008.5
20260507140107 19 0 0.0 1.6 0.05 0.79 0.58 97 1008.7
20260507135543 19 0 0.0 1.6 0.05 0.79 0.58 97 1008.7
20260507135044 19 0 0.0 1.6 0.03 0.76 0.56 97 1008.9
20260507134551 19 0 0.0 1.6 0.03 0.76 0.56 97 1009.0
20260507134043 19 0 0.0 1.6 0.00 0.74 0.53 97 1009.0
20260507133544 18 0 0.0 1.6 0.00 0.74 0.53 97 1009.0
20260507133057 18 0 0.0 0.0 0.00 0.74 0.53 97 1008.9
20260507132543 18 0 0.0 0.0 0.00 0.74 0.53 97 1008.9
20260507132043 18 0 0.0 0.0 0.00 0.74 0.53 97 1008.8
20260507131603 18 0 0.0 0.0 0.00 0.74 0.53 97 1008.9
20260507131049 18 0 0.0 0.0 0.00 0.74 0.53 97 1009.0
20260507130543 18 0 0.0 0.0 0.00 0.74 0.53 97 1009.0
20260507130109 18 0 0.0 0.0 0.00 0.74 0.53 97 1009.0
20260507125544 18 0 0.0 0.0 0.00 0.74 0.53 97 1008.9
20260507125044 18 0 0.0 0.0 0.00 0.74 0.53 97 1009.0
20260507124606 18 0 0.0 0.0 0.00 0.74 0.53 97 1009.0
20260507124044 18 0 0.0 0.0 0.00 0.74 0.53 97 1009.0
20260507123545 18 0 0.0 0.0 0.03 0.74 0.53 97 1009.0
20260507123058 18 0 0.0 0.0 0.03 0.74 0.53 97 1009.0
20260507122543 18 0 0.0 0.0 0.03 0.74 0.53 97 1008.9
20260507122045 18 0 0.0 0.0 0.05 0.74 0.53 97 1008.8
20260507121556 18 0 0.0 0.0 0.08 0.74 0.53 97 1008.9
20260507121044 18 0 0.0 0.0 0.08 0.74 0.53 97 1009.0
20260507120543 18 0 0.0 0.0 0.08 0.74 0.53 97 1009.0
20260507120050 18 0 0.0 0.0 0.08 0.74 0.53 97 1009.1
20260507115544 18 0 0.0 0.0 0.08 0.74 0.53 97 1009.0
20260507115043 18 0 0.0 0.0 0.08 0.74 0.53 97 1008.8
20260507114605 18 0 0.0 0.0 0.08 0.74 0.53 97 1009.2
20260507114046 18 0 0.0 0.0 0.08 0.74 0.53 97 1009.3
20260507113543 18 0 0.0 0.0 0.05 0.71 0.51 97 1009.3
20260507113053 18 0 0.0 0.0 0.05 0.71 0.51 97 1009.3
20260507112544 18 0 0.0 0.0 0.05 0.71 0.51 97 1009.3
20260507112044 18 0 0.0 0.0 0.03 0.69 0.48 97 1009.2
20260507111551 18 0 0.0 0.0 0.00 0.66 0.46 97 1009.2
20260507111043 18 0 0.0 0.0 0.00 0.66 0.46 97 1009.3
20260507110544 18 0 0.0 0.0 0.03 0.66 0.46 97 1009.3
20260507110051 18 0 0.0 0.0 0.03 0.66 0.46 97 1009.2
20260507105544 18 0 0.0 0.0 0.03 0.66 0.46 97 1008.9
20260507105044 18 0 0.0 0.0 0.03 0.66 0.46 97 1008.9
20260507104555 18 0 0.0 0.0 0.03 0.66 0.46 97 1008.8
20260507104044 18 0 0.0 0.0 0.03 0.66 0.46 97 1008.7
20260507103543 18 0 0.0 0.0 0.03 0.66 0.46 97 1008.9
20260507103054 18 0 0.0 0.0 0.03 0.66 0.46 97 1009.0
20260507102544 18 0 0.0 0.0 0.05 0.66 0.46 97 1008.7
20260507102044 18 0 0.0 0.0 0.05 0.66 0.46 97 1008.8
20260507101553 18 0 0.0 0.0 0.05 0.66 0.46 97 1008.8
20260507101044 18 0 0.0 0.0 0.05 0.66 0.46 97 1008.8
20260507100543 18 0 0.0 0.0 0.03 0.64 0.43 96 1008.9
20260507100053 18 0 0.0 0.0 0.03 0.64 0.43 96 1008.8
20260507095544 17 0 0.0 0.0 0.03 0.64 0.43 96 1008.8
20260507095044 18 0 0.0 0.0 0.03 0.64 0.43 96 1008.9
20260507094554 18 0 0.0 0.0 0.03 0.64 0.43 96 1008.9
20260507094043 17 0 0.0 0.0 0.03 0.64 0.43 96 1008.9
20260507093543 17 0 0.0 0.0 0.03 0.64 0.43 96 1009.1
20260507093050 17 0 0.0 0.0 0.03 0.64 0.43 96 1009.0
20260507092544 17 0 0.0 0.0 0.00 0.61 0.41 96 1008.8
20260507092046 17 0 0.0 0.0 0.00 0.61 0.41 96 1008.8
20260507091549 17 0 0.0 0.0 0.00 0.61 0.41 96 1009.0
20260507091044 17 0 0.0 0.0 0.00 0.61 0.41 96 1009.0
20260507090544 17 0 0.0 0.0 0.03 0.61 0.41 96 1009.1
20260507090054 17 0 0.0 0.0 0.03 0.61 0.41 96 1009.1
20260507085544 17 0 0.0 0.0 0.03 0.61 0.41 96 1009.1
20260507085044 17 0 0.0 0.0 0.03 0.61 0.41 96 1008.9
20260507084553 17 0 0.0 0.0 0.05 0.61 0.41 96 1009.0
20260507084043 17 0 0.0 0.0 0.05 0.61 0.41 96 1009.2
20260507083544 17 0 0.0 0.0 0.05 0.61 0.41 96 1009.2
20260507083057 17 0 0.0 0.0 0.05 0.61 0.41 96 1009.5
20260507082544 17 0 0.0 0.0 0.05 0.61 0.41 96 1009.6
20260507082046 17 0 0.0 0.0 0.05 0.61 0.41 96 1009.8
20260507081548 17 0 0.0 0.0 0.05 0.61 0.41 96 1009.9
20260507081044 17 0 0.0 0.0 0.05 0.61 0.41 96 1009.8
20260507080543 17 0 0.0 0.0 0.03 0.58 0.38 96 1009.3
20260507080116 18 0 0.0 0.0 0.03 0.58 0.38 96 1009.3
20260507075546 18 0 0.0 0.0 0.03 0.58 0.38 96 1009.4
20260507075044 18 0 0.0 0.0 0.03 0.58 0.38 96 1009.3
20260507074557 18 0 0.0 0.0 0.00 0.56 0.36 96 1009.6
20260507074043 18 0 0.0 0.0 0.00 0.56 0.36 96 1009.8
20260507073543 18 0 0.0 0.0 0.00 0.56 0.36 96 1010.1
20260507073057 18 0 0.0 0.0 0.00 0.56 0.36 96 1010.0
20260507072544 18 0 0.0 0.0 0.00 0.56 0.36 96 1010.1
20260507072046 17 0 0.0 0.0 0.00 0.56 0.36 95 1010.0
20260507071600 17 0 0.0 0.0 0.00 0.56 0.36 95 1009.9
20260507071045 17 0 0.0 0.0 0.00 0.56 0.36 95 1010.0
20260507070544 18 0 0.0 0.0 0.00 0.56 0.36 95 1010.0
20260507070049 18 0 0.0 0.0 0.00 0.56 0.36 95 1009.9
20260507065544 18 0 0.0 0.0 0.00 0.56 0.36 95 1009.7
20260507065046 18 0 0.0 0.0 0.00 0.56 0.36 95 1010.2
20260507064558 18 0 0.0 0.0 0.00 0.56 0.36 95 1010.2
20260507064044 18 0 0.0 0.0 0.00 0.56 0.36 95 1010.6
20260507063543 18 0 0.0 0.0 0.00 0.56 0.36 95 1010.8
20260507063051 18 0 0.0 0.0 0.03 0.56 0.36 95 1010.7
20260507062543 18 0 0.0 0.0 0.03 0.56 0.36 95 1010.8
20260507062044 18 0 0.0 0.0 0.05 0.56 0.36 95 1010.4
20260507061550 18 0 0.0 0.0 0.08 0.56 0.36 95 1010.3
20260507061043 18 0 0.0 0.0 0.13 0.56 0.36 95 1010.7
20260507060543 18 0 0.0 0.0 0.15 0.56 0.36 95 1011.0
20260507060052 18 0 0.0 0.0 0.15 0.56 0.36 95 1011.0
20260507055543 18 0 0.0 0.0 0.18 0.56 0.36 95 1010.8
20260507055045 18 0 0.0 0.0 0.20 0.56 0.36 95 1011.0
20260507054604 18 0 0.0 0.0 0.23 0.56 0.36 95 1011.2
20260507054043 18 0 0.0 0.0 0.23 0.56 0.36 94 1011.0
20260507053544 18 0 0.0 0.0 0.25 0.56 0.36 94 1010.4
20260507053056 18 0 0.0 0.0 0.25 0.53 0.33 94 1009.9
20260507052548 18 0 0.0 1.6 0.33 0.53 0.33 94 1009.9
20260507052044 18 0 0.0 1.6 0.30 0.51 0.30 94 1010.1
20260507051550 18 0 0.0 1.6 0.28 0.48 0.28 94 1010.2
20260507051043 18 0 0.0 0.0 0.23 0.43 0.23 93 1010.3
20260507050544 18 0 0.0 0.0 0.20 0.41 0.20 93 1010.7
20260507050055 18 0 0.0 0.0 0.18 0.38 0.18 93 1010.4
20260507045544 18 0 0.0 1.6 0.15 0.36 0.15 92 1011.1
20260507045043 19 0 0.0 1.6 0.15 0.36 0.15 92 1012.0
20260507044614 19 0 0.0 1.6 0.13 0.33 0.13 92 1012.3
20260507044042 19 297 0.0 1.6 0.13 0.33 0.13 91 1012.3
20260507043544 20 0 0.0 1.6 0.10 0.30 0.10 90 1012.4
20260507043048 20 0 0.0 1.6 0.05 0.25 0.05 89 1012.3
20260507042544 20 0 0.0 1.6 0.00 0.20 0.00 88 1012.3
20260507042044 20 240 0.0 1.6 0.00 0.20 0.00 88 1012.2
20260507041558 20 0 0.0 1.6 0.00 0.20 0.00 88 1012.1
20260507041044 20 0 0.0 0.0 0.00 0.20 0.00 89 1012.0
20260507040544 20 0 0.0 0.0 0.00 0.20 0.00 89 1012.0
20260507040058 20 0 0.0 0.0 0.00 0.20 0.00 89 1011.7
20260507035544 20 0 0.0 0.0 0.00 0.20 0.20 89 1011.4
20260507035044 20 0 0.0 0.0 0.00 0.20 0.20 88 1011.4
20260507034556 20 0 0.0 0.0 0.00 0.20 0.20 87 1011.0
20260507034043 20 0 0.0 0.0 0.00 0.20 0.20 86 1010.8
20260507033544 20 0 0.0 0.0 0.00 0.20 0.20 86 1010.9
20260507033047 20 0 0.0 0.0 0.00 0.20 0.20 85 1011.1
20260507032545 20 0 0.0 0.0 0.00 0.20 0.20 84 1011.5
20260507032043 20 0 0.0 0.0 0.00 0.20 0.20 84 1011.6
20260507031548 20 0 0.0 0.0 0.00 0.20 0.20 84 1011.5
20260507031043 20 0 0.0 0.0 0.00 0.20 0.20 85 1011.5
20260507030545 20 0 0.0 0.0 0.00 0.20 0.20 86 1011.3